THOR ABLESTAR DEB, 234

Orbit data source: Space-Track

THOR ABLESTAR DEB, 234 is space debris in LEO originally from a launch on Thu, 29 Jun 1961 UTC launched from the Air Force Eastern Test Range (AFETR). Debris objects in space refer to the collection of defunct objects orbiting the Earth. Examples of debris include non-operational satellites, rocket bodies, and fragments generated from explosions, collisions, or faulty payload assembly.

Loading next visibility...
Identifier
234, 1961-015BS
Orbit
LEO
Country
Flag of USUS
Related business
Manufacturer
Unknown
Mission
Spacecraft
Bus & Motor
Unknown
Mass
Unknown
Launch date (UTC)
1961-06-29 (65 years ago)
Launch vehicle
Unknown
Launch site
Air Force Eastern Test Range (AFETR)
Object type
Payload
Rocket body
Debris
Shape & HBR
Unknown shape, 0.1 m
Radar Cross Section
Small (<0.1 m²)

Expand to show TLE details & history
Last TLE update: 4 hours ago

TLE from 4 hours ago
0 THOR ABLESTAR DEB
1   234U 61015BS  26104.85993308  .00000148  00000-0  14022-3 0  9995
2   234  66.8764 318.7873 0069176 180.1006 180.0079 14.04069411302549
Epoch: 2026-04-14T20:38Z
TLE epoch observation values (Epoch: 2026-04-14T20:38:18.218Z)
Latitude
0.00003°
Longitude
166.18128°
Altitude
932.045 km
Speed
7.361 km/s
True Right ascension
21h 15m 08s
True Declination
0° 00' 00"
Sunlit
Object was in daylight at epoch
Visualization orbit readout
Latitude
Unknown
Longitude
Unknown
Altitude
Unknown
Speed
Unknown
Apparent Right ascension
Unknown
Apparent Declination
Unknown
Sunlit
N/A
Visualization observer readout
Local Sidereal Time
07:03:51
Azimuth
Unknown
Elevation
Unknown
Doppler factor
Unknown
Orbital elements
Apogee altitude
928.308 km
Perigee altitude
827.916 km
Semi-major axis
7,256.249 km
Eccentricity
0.00692
Inclination
66.8764°
RAAN
318.7873°
Arg. of periapsis
180.1006°
True anomaly
180.00779°
Mean anomaly
180.0079°
Eccentric anomaly
180.00785°
Mean motion
3.51136 °/min
Orbital period
102.52 mins
BSTAR
0.00014022
Loading maneuver chart data...
Computing Atmospheric mass density...

Documentation

Showing up to 5 results
|